User: anonymous   Login
Location: Caltech
(34.1382°N, 118.1253°W)
Time: 05:19:35
(UTC-07:00)
Language:

BREEZE M DEB (TANK) - Orbit

View from above orbital plane
View from above orbital plane
View from above satellite
View from above satellite

Ground track
Ground track

The orbit data is extracted from the following two-line orbital elements,

1 33437U 08057B   17265.92396228 +.00000775 +00000-0 +19479-3 0  9994
2 33437 049.5246 161.9383 4988172 147.0284 257.4869 05.60539714179321
Epoch (UTC): 22 September 2017 22:10:30
Eccentricity: 0.4988172
inclination: 49.5246°
perigee height: 331 km
apogee height: 13685 km
right ascension of ascending node: 161.9383°
argument of perigee: 147.0284°
revolutions per day: 5.60539714
mean anomaly at epoch: 257.4869°
orbit number at epoch: 17932

The dashed part of the orbit path shows where the satellite is in the earth's shadow,  

DLR